CAPE
365 314 152 142 121 16 0 0 0 0 0 10 0 65 80 135 60 80 239 89 0 0 0 0 0 2 14 37 47 64 111 164 168 162 173 173 26 0
220 322 275 117 94 91 43 11 0 4 0 0 9 21 37 78 32 268 154 0 0 0 0 0 0 0 7 31 49 49 55 60 59 59 68 91 113 60
340 360 367 316 94 67 39 18 13 0 0 0 5 67 68 103 36 161 96 232 126 2 0 0 0 0 0 2 2 4 6 8 8 9 6 5 32 70
639 434 387 131 217 148 44 131 41 16 0 255 82 91 190 242 416 455 265 49 149 6 0 0 0 0 0 0 0 0 0 0 0 0 0 0 0 0
829 602 512 393 214 40 72 15 13 112 119 53 71 91 123 140 293 469 486 242 172 12 4 0 0 0 0 0 0 0 0 0 0 0 0 0 0 0
1032 773 636 573 496 370 184 223 168 146 169 146 105 96 160 269 277 263 224 101 44 32 33 2 0 0 0 0 0 0 0 0 0 0 0 0 0 0
1324 1093 872 797 784 789 652 447 619 359 153 189 201 196 128 110 34 204 101 67 84 101 163 270 271 166 136 0 0 0 0 0 0 0 0 0 0 0
1824 1427 1207 1144 1151 1051 919 550 607 693 695 293 296 350 502 54 269 122 94 153 95 65 244 332 432 542 469 421 14 0 0 0 0 0 0 0 0 0
2043 1877 1511 1510 1532 1448 1156 808 496 184 128 765 693 738 546 200 172 309 238 206 287 525 440 475 539 547 225 80 0 0 0 0 0 0 0 0 0 0
2076 1907 1683 1637 1630 1715 1272 1104 802 595 214 96 645 863 464 391 198 352 455 548 519 459 547 329 58 68 51 0 0 0 0 0 0 0 0 0 0 0
2136 1875 1669 1705 1630 1596 1345 1212 1026 941 309 58 56 9 11 14 42 358 331 204 148 88 56 0 3 4 0 0 0 0 0 0 0 0 0 0 0 0
2069 1804 1831 1833 2306 2159 1630 1264 1107 856 663 141 18 1 24 1 0 247 101 0 0 0 8 0 0 0 0 0 0 0 0 0 0 0 0 0 0 0
1910 1436 1890 1985 2549 2258 1489 1281 1052 988 365 353 90 66 2 0 0 0 0 0 0 0 4 0 0 0 0 0 0 0 0 0 0 0 0 0 0 0
1389 1479 1841 2522 2541 1927 1414 752 552 210 276 188 16 0 0 0 0 0 0 0 0 0 0 0 0 0 0 0 0 0 0 0 0 0 0 0 0 0
1655 1778 2348 2461 2369 1501 747 304 135 201 104 0 0 0 0 0 0 0 0 0 0 0 0 0 0 0 0 0 0 0 0 0 0 0 20 26 9 0
2100 2031 2128 1866 1253 403 144 125 194 226 31 0 0 0 0 0 0 0 0 0 0 0 0 0 0 0 0 0 0 0 0 0 0 25 35 10 0 0
1652 1510 1318 762 187 125 124 85 82 0 0 0 0 0 0 0 0 0 0 0 0 0 0 0 0 0 0 0 0 0 0 0 10 14 15 0 0 0
198 499 310 124 153 179 30 0 0 0 0 0 0 0 0 0 0 0 0 0 0 0 0 0 0 0 0 0 0 0 0 0 1 3 4 0 0 0
105 61 169 96 163 8 0 0 0 0 0 0 0 0 0 0 0 0 0 0 0 0 0 0 0 0 0 0 0 0 0 0 0 0 0 0 0 0
43 40 42 78 55 0 0 0 0 0 0 0 0 0 0 0 0 0 0 0 0 0 0 0 0 0 0 0 0 0 0 0 0 0 0 0 0 0
99 201 235 120 54 0 0 0 0 0 0 0 0 0 0 0 0 0 0 0 0 0 0 0 0 0 0 0 0 0 0 0 0 0 0 0 0 0
203 304 230 167 18 0 0 0 0 0 0 0 0 0 0 0 0 0 0 0 0 0 0 0 0 0 0 0 0 0 0 0 0 0 0 0 0 0
212 127 114 22 0 0 0 0 0 0 0 0 0 0 0 0 0 0 0 0 0 0 0 0 0 0 0 0 0 0 0 0 0 0 0 0 0 0
CIN
-150 -154 -160 -133 -140 -131 0 0 0 0 0 -6 0 -107 -88 -56 -61 -56 -32 -70 0 0 0 0 0 -127 -157 -127 -132 -112 -95 -75 -62 -59 -59 -58 -60 0
-210 -187 -174 -185 -174 -149 -135 -47 0 -184 0 0 -31 -36 -42 -87 -52 -35 -50 0 0 0 0 0 0 0 -106 -165 -154 -143 -129 -118 -115 -103 -93 -96 -87 -86
-242 -223 -184 -166 -182 -176 -163 -163 -179 0 0 0 -58 -79 -117 -61 -33 -81 -111 -57 -113 -25 0 0 0 0 0 -53 -52 -54 -49 -44 -43 -40 -37 -35 -93 -106
-195 -224 -211 -246 -200 -185 -186 -132 -121 -114 0 -39 -84 -75 -58 -43 -24 -24 -40 -19 -84 -38 0 0 0 0 0 0 0 0 0 0 0 0 0 0 0 0
-178 -226 -216 -202 -229 -297 -248 -225 -156 -102 -73 -92 -85 -70 -52 -43 -21 -26 -21 -45 -68 -92 -65 -21 -83 0 0 0 0 0 0 0 0 0 0 0 0 0
-173 -206 -230 -170 -89 -141 -175 -107 -95 -78 -60 -42 -43 -44 -29 -17 -26 -22 -30 -79 -41 -89 -91 -103 0 0 0 0 0 0 0 0 0 0 0 0 0 0
-161 -122 -127 -120 -73 -23 -11 -62 -15 -34 -58 -16 -8 -18 -31 -54 -75 -48 -26 -38 -110 -88 -74 -21 -13 -29 -51 0 0 0 0 0 0 0 0 0 0 0
-118 -172 -95 -52 -15 -15 -5 -43 -51 -18 -6 -1 0 -3 -1 -65 -30 -45 -47 -29 -23 -120 -38 -19 -14 -1 -2 0 -23 0 0 0 0 0 0 0 0 0
-124 -114 -72 -32 -3 -7 -14 -32 -68 -95 -74 -3 0 -1 -12 -59 -33 -7 -11 -20 -8 0 -4 -2 -4 -4 -27 -48 0 0 0 0 0 0 0 0 0 0
-130 -147 -79 -13 -11 -4 -15 -16 -32 -35 -54 -100 -8 -9 -34 -13 -16 -1 -2 0 0 0 0 -2 -62 -52 -98 0 0 0 0 0 0 0 0 0 0 0
-120 -140 -86 -22 -27 -6 -11 -7 -4 -2 -47 -109 -94 -14 -51 -5 -8 0 -1 -16 0 -4 -37 0 0 0 0 0 0 0 0 0 0 0 0 0 0 0
-91 -155 -80 -41 0 0 0 -3 -5 0 -5 -118 -80 -25 -60 -8 0 -23 0 0 0 0 -3 0 0 0 0 0 0 0 0 0 0 0 0 0 0 0
-141 -196 -77 -23 0 0 -4 0 -2 -2 -47 -15 -69 -45 -34 0 0 0 0 0 0 0 -2 0 0 0 0 0 0 0 0 0 0 0 0 0 0 0
-239 -147 -60 -4 0 0 -2 -46 -46 -100 -23 -44 -34 0 0 0 0 0 0 0 0 0 0 0 0 0 0 0 0 0 0 0 0 0 0 0 0 0
-84 -27 -9 -1 0 -3 -82 -174 -157 -63 -51 -13 0 0 0 0 0 0 0 0 0 0 0 0 0 0 0 0 0 0 0 0 0 0 0 0 0 0
-8 -3 -1 0 -61 -170 -235 -210 -105 -29 -90 -15 0 0 0 0 0 0 0 0 0 0 0 0 0 0 0 0 0 0 0 0 0 0 0 0 0 0
0 0 -6 -51 -144 -228 -189 -150 -139 0 0 0 0 0 0 0 0 0 0 0 0 0 0 0 0 0 0 0 0 0 0 0 0 0 0 0 0 0
-24 0 -5 -55 -129 -102 -177 -29 0 0 0 0 0 0 0 0 0 0 0 0 0 0 0 0 0 0 0 0 0 0 0 0 0 0 0 0 0 0
-1 -13 -57 -71 -21 -117 0 0 0 0 0 0 0 0 0 0 0 0 0 0 0 0 0 0 0 0 0 0 0 0 0 0 0 0 0 0 0 0
-150 -142 -21 -34 -24 0 0 0 0 0 0 0 0 0 0 0 0 0 0 0 0 0 0 0 0 0 0 0 0 0 0 0 0 0 0 0 0 0
-2 -34 -5 -17 -36 0 0 0 0 0 0 0 0 0 0 0 0 0 0 0 0 0 0 0 0 0 0 0 0 0 0 0 0 0 0 0 0 0
-26 -4 -1 -4 -19 0 0 0 0 0 0 0 0 0 0 0 0 0 0 0 0 0 0 0 0 0 0 0 0 0 0 0 0 0 0 0 0 0
-23 -48 -68 -36 0 0 0 0 0 0 0 0 0 0 0 0 0 0 0 0 0 0 0 0 0 0 0 0 0 0 0 0 0 0 0 0 0 0
Wind_Speed
16 16 14 14 14 nan nan nan nan nan nan nan nan nan nan 23 nan nan 23 nan nan nan nan nan nan nan nan nan nan nan 23 22 21 20 20 20 nan nan
17 17 16 16 nan nan nan nan nan nan nan nan nan nan nan nan nan 28 28 nan nan nan nan nan nan nan nan nan nan nan nan nan nan nan nan nan 24 nan
18 19 19 18 nan nan nan nan nan nan nan nan nan nan nan 24 nan 30 nan 26 27 nan nan nan nan nan nan nan nan nan nan nan nan nan nan nan nan nan
18 20 19 21 22 20 nan 17 nan nan nan 20 nan nan 25 25 25 29 28 nan 28 nan nan nan nan nan nan nan nan nan nan nan nan nan nan nan nan nan
18 20 22 24 24 nan nan nan nan 20 21 nan nan nan 31 30 29 27 21 26 29 nan nan nan nan nan nan nan nan nan nan nan nan nan nan nan nan nan
18 18 22 26 27 23 20 22 21 22 24 23 23 nan 28 31 27 23 27 33 nan nan nan nan nan nan nan nan nan nan nan nan nan nan nan nan nan nan
19 19 24 27 29 28 20 23 25 25 26 26 26 28 29 32 nan 32 31 nan nan 41 39 39 43 46 45 nan nan nan nan nan nan nan nan nan nan nan
22 23 23 27 31 34 32 30 31 31 31 30 27 28 31 nan 35 35 nan 33 nan nan 44 38 44 43 50 46 nan nan nan nan nan nan nan nan nan nan
21 25 31 29 30 31 31 34 33 34 33 33 29 31 35 40 39 38 37 36 34 38 37 32 35 34 36 nan nan nan nan nan nan nan nan nan nan nan
23 26 30 36 39 33 30 34 36 35 34 nan 34 32 35 39 38 34 32 34 35 36 38 32 nan nan nan nan nan nan nan nan nan nan nan nan nan nan
27 30 32 30 40 40 34 37 41 38 38 nan nan nan nan nan nan 36 36 36 31 nan nan nan nan nan nan nan nan nan nan nan nan nan nan nan nan nan
31 35 38 37 41 43 37 36 44 44 43 47 nan nan nan nan nan 34 31 nan nan nan nan nan nan nan nan nan nan nan nan nan nan nan nan nan nan nan
40 42 41 39 52 52 42 43 43 51 47 48 nan nan nan nan nan nan nan nan nan nan nan nan nan nan nan nan nan nan nan nan nan nan nan nan nan nan
47 47 46 52 51 54 48 43 47 49 44 39 nan nan nan nan nan nan nan nan nan nan nan nan nan nan nan nan nan nan nan nan nan nan nan nan nan nan
54 54 59 57 60 55 40 52 50 41 40 nan nan nan nan nan nan nan nan nan nan nan nan nan nan nan nan nan nan nan nan nan nan nan nan nan nan nan
73 74 68 57 59 55 56 47 42 39 nan nan nan nan nan nan nan nan nan nan nan nan nan nan nan nan nan nan nan nan nan nan nan nan nan nan nan nan
80 78 80 63 34 43 42 nan nan nan nan nan nan nan nan nan nan nan nan nan nan nan nan nan nan nan nan nan nan nan nan nan nan nan nan nan nan nan
58 66 75 48 30 39 nan nan nan nan nan nan nan nan nan nan nan nan nan nan nan nan nan nan nan nan nan nan nan nan nan nan nan nan nan nan nan nan
55 nan 9 nan 19 nan nan nan nan nan nan nan nan nan nan nan nan nan nan nan nan nan nan nan nan nan nan nan nan nan nan nan nan nan nan nan nan nan
nan nan nan nan nan nan nan nan nan nan nan nan nan nan nan nan nan nan nan nan nan nan nan nan nan nan nan nan nan nan nan nan nan nan nan nan nan nan
nan 21 25 32 nan nan nan nan nan nan nan nan nan nan nan nan nan nan nan nan nan nan nan nan nan nan nan nan nan nan nan nan nan nan nan nan nan nan
23 21 25 32 nan nan nan nan nan nan nan nan nan nan nan nan nan nan nan nan nan nan nan nan nan nan nan nan nan nan nan nan nan nan nan nan nan nan
13 20 32 nan nan nan nan nan nan nan nan nan nan nan nan nan nan nan nan nan nan nan nan nan nan nan nan nan nan nan nan nan nan nan nan nan nan nan
Wind_Direction
357 7 9 3 2 nan nan nan nan nan nan nan nan nan nan 335 nan nan 330 nan nan nan nan nan nan nan nan nan nan nan 256 258 258 251 244 250 nan nan
357 1 10 9 nan nan nan nan nan nan nan nan nan nan nan nan nan 328 326 nan nan nan nan nan nan nan nan nan nan nan nan nan nan nan nan nan 248 nan
351 356 8 6 nan nan nan nan nan nan nan nan nan nan nan 329 nan 320 nan 323 322 nan nan nan nan nan nan nan nan nan nan nan nan nan nan nan nan nan
350 347 3 356 1 11 nan 27 nan nan nan 348 nan nan 330 326 327 320 318 nan 314 nan nan nan nan nan nan nan nan nan nan nan nan nan nan nan nan nan
344 346 353 357 360 nan nan nan nan 351 338 nan nan nan 326 329 319 323 309 308 307 nan nan nan nan nan nan nan nan nan nan nan nan nan nan nan nan nan
343 349 353 352 358 358 349 346 344 345 338 333 331 nan 325 325 327 324 313 310 nan nan nan nan nan nan nan nan nan nan nan nan nan nan nan nan nan nan
338 340 351 349 350 346 341 338 336 336 336 336 331 330 330 328 nan 324 322 nan nan 305 299 303 296 288 283 nan nan nan nan nan nan nan nan nan nan nan
336 346 358 344 339 340 343 335 336 339 338 333 334 330 328 nan 328 327 nan 311 nan nan 304 303 292 290 300 302 nan nan nan nan nan nan nan nan nan nan
334 334 332 332 333 332 332 337 335 334 329 332 331 330 327 329 326 325 322 318 315 310 312 309 302 302 299 nan nan nan nan nan nan nan nan nan nan nan
322 319 327 330 320 320 325 327 331 328 330 nan 329 328 325 320 324 321 316 317 318 317 317 318 nan nan nan nan nan nan nan nan nan nan nan nan nan nan
310 304 306 320 316 317 319 321 322 322 319 nan nan nan nan nan nan 325 323 320 321 nan nan nan nan nan nan nan nan nan nan nan nan nan nan nan nan nan
291 297 296 310 312 316 316 319 320 319 317 313 nan nan nan nan nan 327 320 nan nan nan nan nan nan nan nan nan nan nan nan nan nan nan nan nan nan nan
279 282 287 296 298 310 312 316 317 319 311 307 nan nan nan nan nan nan nan nan nan nan nan nan nan nan nan nan nan nan nan nan nan nan nan nan nan nan
274 271 277 290 291 294 303 303 303 314 310 307 nan nan nan nan nan nan nan nan nan nan nan nan nan nan nan nan nan nan nan nan nan nan nan nan nan nan
263 268 270 276 277 276 279 297 307 308 313 nan nan nan nan nan nan nan nan nan nan nan nan nan nan nan nan nan nan nan nan nan nan nan nan nan nan nan
260 258 259 261 266 275 276 286 300 306 nan nan nan nan nan nan nan nan nan nan nan nan nan nan nan nan nan nan nan nan nan nan nan nan nan nan nan nan
255 250 256 258 262 269 274 nan nan nan nan nan nan nan nan nan nan nan nan nan nan nan nan nan nan nan nan nan nan nan nan nan nan nan nan nan nan nan
268 244 249 247 245 262 nan nan nan nan nan nan nan nan nan nan nan nan nan nan nan nan nan nan nan nan nan nan nan nan nan nan nan nan nan nan nan nan
309 nan 233 nan 277 nan nan nan nan nan nan nan nan nan nan nan nan nan nan nan nan nan nan nan nan nan nan nan nan nan nan nan nan nan nan nan nan nan
nan nan nan nan nan nan nan nan nan nan nan nan nan nan nan nan nan nan nan nan nan nan nan nan nan nan nan nan nan nan nan nan nan nan nan nan nan nan
nan 233 258 263 nan nan nan nan nan nan nan nan nan nan nan nan nan nan nan nan nan nan nan nan nan nan nan nan nan nan nan nan nan nan nan nan nan nan
219 228 250 267 nan nan nan nan nan nan nan nan nan nan nan nan nan nan nan nan nan nan nan nan nan nan nan nan nan nan nan nan nan nan nan nan nan nan
283 281 272 nan nan nan nan nan nan nan nan nan nan nan nan nan nan nan nan nan nan nan nan nan nan nan nan nan nan nan nan nan nan nan nan nan nan nan